Time,TemperatureF,DewpointF,PressureIn,WindDirection,WindDirectionDegrees,WindSpeedMPH,WindSpeedGustMPH,Humidity,HourlyPrecipIn,Conditions,Clouds,dailyrainin,SoftwareType,DateUTC
2013-08-25 00:03:00,-999.0,-99.9,-100.00,South,178,20.0,25.0,-999,-99.99,,,-99.99,,2013-08-25 04:03:00,
2013-08-25 00:14:00,69.0,-99.9,-100.00,South,178,20.0,25.0,-999,-99.99,,,-99.99,,2013-08-25 04:14:00,
2013-08-25 00:25:00,69.0,-99.9,-100.00,South,178,20.0,25.0,-999,-99.99,,,-99.99,,2013-08-25 04:25:00,
2013-08-25 00:34:00,69.0,-99.9,-100.00,South,178,20.0,25.0,-999,-99.99,,,-99.99,,2013-08-25 04:34:00,
2013-08-25 00:40:00,70.0,-99.9,-100.00,South,181,21.0,24.0,-999,-99.99,,,-99.99,,2013-08-25 04:40:00,
2013-08-25 01:12:00,70.0,-99.9,-100.00,South,181,21.0,24.0,-999,-99.99,,,-99.99,,2013-08-25 05:12:00,
2013-08-25 01:23:00,70.0,-99.9,-100.00,South,181,21.0,24.0,-999,-99.99,,,-99.99,,2013-08-25 05:23:00,
2013-08-25 01:34:00,70.0,-99.9,-100.00,South,181,21.0,24.0,-999,-99.99,,,-99.99,,2013-08-25 05:34:00,
2013-08-25 02:12:00,70.0,-99.9,-100.00,South,178,19.0,23.0,-999,-99.99,,,-99.99,,2013-08-25 06:12:00,
2013-08-25 02:22:00,70.0,-99.9,-100.00,South,180,22.0,26.0,-999,-99.99,,,-99.99,,2013-08-25 06:22:00,
2013-08-25 02:32:00,70.0,-99.9,-100.00,South,180,22.0,26.0,-999,-99.99,,,-99.99,,2013-08-25 06:32:00,
2013-08-25 02:40:00,69.0,-99.9,-100.00,South,188,19.0,23.0,-999,-99.99,,,-99.99,,2013-08-25 06:40:00,
2013-08-25 02:52:00,70.0,-99.9,-100.00,South,180,22.0,26.0,-999,-99.99,,,-99.99,,2013-08-25 06:52:00,
2013-08-25 03:12:00,69.0,-99.9,-100.00,South,188,19.0,23.0,-999,-99.99,,,-99.99,,2013-08-25 07:12:00,
2013-08-25 03:22:00,69.0,-99.9,-100.00,South,188,19.0,23.0,-999,-99.99,,,-99.99,,2013-08-25 07:22:00,
2013-08-25 03:32:00,69.0,-99.9,-100.00,South,188,19.0,23.0,-999,-99.99,,,-99.99,,2013-08-25 07:32:00,
2013-08-25 03:40:00,69.0,-99.9,-100.00,SSW,199,20.0,24.0,-999,-99.99,,,-99.99,,2013-08-25 07:40:00,
2013-08-25 04:12:00,69.0,-99.9,-100.00,SSW,199,20.0,24.0,-999,-99.99,,,-99.99,,2013-08-25 08:12:00,
2013-08-25 04:22:00,69.0,-99.9,-100.00,SSW,199,20.0,24.0,-999,-99.99,,,-99.99,,2013-08-25 08:22:00,
2013-08-25 04:32:00,69.0,-99.9,-100.00,SSW,199,20.0,24.0,-999,-99.99,,,-99.99,,2013-08-25 08:32:00,
2013-08-25 04:40:00,68.0,-99.9,-100.00,SSW,199,20.0,25.0,-999,-99.99,,,-99.99,,2013-08-25 08:40:00,
2013-08-25 05:11:00,68.0,-99.9,-100.00,SSW,199,20.0,25.0,-999,-99.99,,,-99.99,,2013-08-25 09:11:00,
2013-08-25 05:22:00,68.0,-99.9,-100.00,SSW,199,20.0,25.0,-999,-99.99,,,-99.99,,2013-08-25 09:22:00,
2013-08-25 05:34:00,68.0,-99.9,-100.00,SSW,199,20.0,25.0,-999,-99.99,,,-99.99,,2013-08-25 09:34:00,
2013-08-25 05:40:00,68.0,-99.9,-100.00,SSW,200,23.0,28.0,-999,-99.99,,,-99.99,,2013-08-25 09:40:00,
2013-08-25 06:12:00,68.0,-99.9,-100.00,SSW,200,23.0,28.0,-999,-99.99,,,-99.99,,2013-08-25 10:12:00,
2013-08-25 06:23:00,68.0,-99.9,-100.00,SSW,200,23.0,28.0,-999,-99.99,,,-99.99,,2013-08-25 10:23:00,
2013-08-25 06:33:00,68.0,-99.9,-100.00,SSW,200,23.0,28.0,-999,-99.99,,,-99.99,,2013-08-25 10:33:00,
2013-08-25 07:22:00,68.0,-99.9,-100.00,SSW,200,23.0,28.0,-999,-99.99,,,-99.99,,2013-08-25 11:22:00,
2013-08-25 07:40:00,68.0,-99.9,-100.00,SSW,201,23.0,27.0,-999,-99.99,,,-99.99,,2013-08-25 11:40:00,
2013-08-25 07:42:00,68.0,-99.9,-100.00,SSW,199,24.0,29.0,-999,-99.99,,,-99.99,,2013-08-25 11:42:00,
2013-08-25 07:52:00,68.0,-99.9,-100.00,SSW,199,24.0,29.0,-999,-99.99,,,-99.99,,2013-08-25 11:52:00,
2013-08-25 08:12:00,68.0,-99.9,-100.00,SSW,201,23.0,27.0,-999,-99.99,,,-99.99,,2013-08-25 12:12:00,
2013-08-25 08:22:00,68.0,-99.9,-100.00,SSW,201,23.0,27.0,-999,-99.99,,,-99.99,,2013-08-25 12:22:00,
2013-08-25 08:33:00,68.0,-99.9,-100.00,SSW,201,23.0,27.0,-999,-99.99,,,-99.99,,2013-08-25 12:33:00,
2013-08-25 09:12:00,68.0,-99.9,-100.00,SSW,197,25.0,30.0,-999,-99.99,,,-99.99,,2013-08-25 13:12:00,
2013-08-25 09:22:00,68.0,-99.9,-100.00,SSW,197,25.0,30.0,-999,-99.99,,,-99.99,,2013-08-25 13:22:00,
2013-08-25 09:42:00,68.0,-99.9,-100.00,SSW,198,24.0,29.0,-999,-99.99,,,-99.99,,2013-08-25 13:42:00,
2013-08-25 09:52:00,68.0,-99.9,-100.00,SSW,198,24.0,29.0,-999,-99.99,,,-99.99,,2013-08-25 13:52:00,
2013-08-25 10:11:00,67.0,-99.9,-100.00,SSW,198,24.0,29.0,-999,-99.99,,,-99.99,,2013-08-25 14:11:00,
2013-08-25 10:40:00,71.0,-99.9,-100.00,SSW,212,18.0,24.0,-999,-99.99,,,-99.99,,2013-08-25 14:40:00,
2013-08-25 10:52:00,67.0,-99.9,-100.00,SSW,198,24.0,0.0,-999,-99.99,,,-99.99,,2013-08-25 14:52:00,
2013-08-25 11:01:00,67.0,-99.9,-100.00,SSW,198,24.0,0.0,-999,-99.99,,,-99.99,,2013-08-25 15:01:00,
2013-08-25 11:23:00,71.0,-99.9,-100.00,SSW,212,18.0,24.0,-999,-99.99,,,-99.99,,2013-08-25 15:23:00,
2013-08-25 11:35:00,71.0,-99.9,-100.00,SSW,212,18.0,24.0,-999,-99.99,,,-99.99,,2013-08-25 15:35:00,
2013-08-25 11:40:00,69.0,-99.9,-100.00,South,191,14.0,22.0,-999,-99.99,,,-99.99,,2013-08-25 15:40:00,
2013-08-25 12:14:00,69.0,-99.9,-100.00,South,191,14.0,22.0,-999,-99.99,,,-99.99,,2013-08-25 16:14:00,
2013-08-25 12:24:00,69.0,-99.9,-100.00,South,191,14.0,22.0,-999,-99.99,,,-99.99,,2013-08-25 16:24:00,
2013-08-25 12:33:00,69.0,-99.9,-100.00,South,191,14.0,22.0,-999,-99.99,,,-99.99,,2013-08-25 16:33:00,
2013-08-25 13:23:00,69.0,-99.9,-100.00,SSW,202,12.0,21.0,-999,-99.99,,,-99.99,,2013-08-25 17:23:00,
2013-08-25 13:40:00,71.0,-99.9,-100.00,SSW,207,14.0,23.0,-999,-99.99,,,-99.99,,2013-08-25 17:40:00,
2013-08-25 13:43:00,74.0,-99.9,-100.00,SW,216,21.0,29.0,-999,-99.99,,,-99.99,,2013-08-25 17:43:00,
2013-08-25 13:53:00,74.0,-99.9,-100.00,SW,216,21.0,29.0,-999,-99.99,,,-99.99,,2013-08-25 17:53:00,
2013-08-25 14:03:00,74.0,-99.9,-100.00,SW,216,21.0,29.0,-999,-99.99,,,-99.99,,2013-08-25 18:03:00,
2013-08-25 14:22:00,71.0,-99.9,-100.00,SSW,207,14.0,23.0,-999,-99.99,,,-99.99,,2013-08-25 18:22:00,
2013-08-25 14:32:00,71.0,-99.9,-100.00,SSW,207,14.0,23.0,-999,-99.99,,,-99.99,,2013-08-25 18:32:00,
2013-08-25 15:40:00,69.0,-99.9,-100.00,SSW,194,19.0,22.0,-999,-99.99,,,-99.99,,2013-08-25 19:40:00,
2013-08-25 15:53:00,68.0,-99.9,-100.00,SSW,193,21.0,24.0,-999,-99.99,,,-99.99,,2013-08-25 19:53:00,
2013-08-25 16:13:00,69.0,-99.9,-100.00,SSW,194,19.0,22.0,-999,-99.99,,,-99.99,,2013-08-25 20:13:00,
2013-08-25 16:24:00,69.0,-99.9,-100.00,SSW,194,19.0,22.0,-999,-99.99,,,-99.99,,2013-08-25 20:24:00,
2013-08-25 16:33:00,69.0,-99.9,-100.00,SSW,194,19.0,22.0,-999,-99.99,,,-99.99,,2013-08-25 20:33:00,
2013-08-25 16:40:00,69.0,-99.9,-100.00,SSW,194,20.0,24.0,-999,-99.99,,,-99.99,,2013-08-25 20:40:00,
2013-08-25 17:12:00,69.0,-99.9,-100.00,SSW,194,20.0,24.0,-999,-99.99,,,-99.99,,2013-08-25 21:12:00,
2013-08-25 17:22:00,69.0,-99.9,-100.00,SSW,194,20.0,24.0,-999,-99.99,,,-99.99,,2013-08-25 21:22:00,
2013-08-25 17:34:00,69.0,-99.9,-100.00,SSW,194,20.0,24.0,-999,-99.99,,,-99.99,,2013-08-25 21:34:00,
2013-08-25 17:40:00,69.0,-99.9,-100.00,SSW,197,22.0,26.0,-999,-99.99,,,-99.99,,2013-08-25 21:40:00,
2013-08-25 18:14:00,69.0,-99.9,-100.00,SSW,197,22.0,26.0,-999,-99.99,,,-99.99,,2013-08-25 22:14:00,
2013-08-25 18:24:00,69.0,-99.9,-100.00,SSW,197,22.0,26.0,-999,-99.99,,,-99.99,,2013-08-25 22:24:00,
2013-08-25 18:35:00,69.0,-99.9,-100.00,SSW,197,22.0,26.0,-999,-99.99,,,-99.99,,2013-08-25 22:35:00,
2013-08-25 18:40:00,69.0,-99.9,-100.00,SSW,194,19.0,23.0,-999,-99.99,,,-99.99,,2013-08-25 22:40:00,
2013-08-25 19:12:00,69.0,-99.9,-100.00,SSW,194,19.0,23.0,-999,-99.99,,,-99.99,,2013-08-25 23:12:00,
2013-08-25 19:23:00,69.0,-99.9,-100.00,SSW,194,19.0,23.0,-999,-99.99,,,-99.99,,2013-08-25 23:23:00,
2013-08-25 19:34:00,69.0,-99.9,-100.00,SSW,194,19.0,23.0,-999,-99.99,,,-99.99,,2013-08-25 23:34:00,
2013-08-25 19:40:00,69.0,-99.9,-100.00,SSW,198,16.0,21.0,-999,-99.99,,,-99.99,,2013-08-25 23:40:00,
2013-08-25 20:11:00,69.0,-99.9,-100.00,SSW,198,16.0,21.0,-999,-99.99,,,-99.99,,2013-08-26 00:11:00,
2013-08-25 20:22:00,69.0,-99.9,-100.00,SSW,198,16.0,21.0,-999,-99.99,,,-99.99,,2013-08-26 00:22:00,
2013-08-25 20:32:00,69.0,-99.9,-100.00,SSW,198,16.0,21.0,-999,-99.99,,,-99.99,,2013-08-26 00:32:00,
2013-08-25 20:40:00,69.0,-99.9,-100.00,SSW,208,14.0,19.0,-999,-99.99,,,-99.99,,2013-08-26 00:40:00,
2013-08-25 21:22:00,69.0,-99.9,-100.00,SSW,208,14.0,19.0,-999,-99.99,,,-99.99,,2013-08-26 01:22:00,
2013-08-25 21:32:00,69.0,-99.9,-100.00,SSW,208,14.0,19.0,-999,-99.99,,,-99.99,,2013-08-26 01:32:00,
2013-08-25 21:40:00,70.0,-99.9,-100.00,SW,220,11.0,12.0,-999,-99.99,,,-99.99,,2013-08-26 01:40:00,
2013-08-25 22:11:00,70.0,-99.9,-100.00,SW,220,11.0,12.0,-999,-99.99,,,-99.99,,2013-08-26 02:11:00,
2013-08-25 22:22:00,70.0,-99.9,-100.00,SW,220,11.0,12.0,-999,-99.99,,,-99.99,,2013-08-26 02:22:00,
2013-08-25 22:32:00,70.0,-99.9,-100.00,SW,220,11.0,12.0,-999,-99.99,,,-99.99,,2013-08-26 02:32:00,
2013-08-25 22:40:00,73.0,-99.9,-100.00,SW,218,12.0,13.0,-999,-99.99,,,-99.99,,2013-08-26 02:40:00,
2013-08-25 23:11:00,73.0,-99.9,-100.00,SW,218,12.0,13.0,-999,-99.99,,,-99.99,,2013-08-26 03:11:00,
2013-08-25 23:22:00,73.0,-99.9,-100.00,SW,218,12.0,13.0,-999,-99.99,,,-99.99,,2013-08-26 03:22:00,
2013-08-25 23:34:00,73.0,-99.9,-100.00,SW,218,12.0,13.0,-999,-99.99,,,-99.99,,2013-08-26 03:34:00,
2013-08-25 23:40:00,76.0,-99.9,-100.00,SW,226,22.0,27.0,-999,-99.99,,,-99.99,,2013-08-26 03:40:00,